Year,Month,Day,Hour,Minute,Value (Times are PST for temperature in C)
2019,05,29,00,00,14.10
2019,05,29,00,01,14.10
2019,05,29,00,02,14.10
2019,05,29,00,03,14.10
2019,05,29,00,04,14.10
2019,05,29,00,05,14.10
2019,05,29,00,06,14.10
2019,05,29,00,07,14.10
2019,05,29,00,08,14.10
2019,05,29,00,09,14.10
2019,05,29,00,10,14.10
2019,05,29,00,11,14.10
2019,05,29,00,12,14.10
2019,05,29,00,13,14.10
2019,05,29,00,14,14.10
2019,05,29,00,15,14.10
2019,05,29,00,16,14.10
2019,05,29,00,17,14.10
2019,05,29,00,18,14.10
2019,05,29,00,19,14.10
2019,05,29,00,20,14.10
2019,05,29,00,21,14.10
2019,05,29,00,22,14.10
2019,05,29,00,23,14.10
2019,05,29,00,24,14.10
2019,05,29,00,25,14.10
2019,05,29,00,26,14.10
2019,05,29,00,27,14.10
2019,05,29,00,28,14.10
2019,05,29,00,29,14.10
2019,05,29,00,30,14.10
2019,05,29,00,31,14.10
2019,05,29,00,32,14.10
2019,05,29,00,33,14.00
2019,05,29,00,34,14.00
2019,05,29,00,35,14.00
2019,05,29,00,36,14.00
2019,05,29,00,37,14.00
2019,05,29,00,38,14.00
2019,05,29,00,39,14.00
2019,05,29,00,40,14.00
2019,05,29,00,41,14.00
2019,05,29,00,42,14.00
2019,05,29,00,43,14.00
2019,05,29,00,44,14.00
2019,05,29,00,45,14.00
2019,05,29,00,46,14.00
2019,05,29,00,47,13.90
2019,05,29,00,48,13.90
2019,05,29,00,49,13.90
2019,05,29,00,50,13.90
2019,05,29,00,51,13.90
2019,05,29,00,52,13.90
2019,05,29,00,53,13.90
2019,05,29,00,54,13.90
2019,05,29,00,55,13.90
2019,05,29,00,56,13.80
2019,05,29,00,57,13.80
2019,05,29,00,58,13.80
2019,05,29,00,59,13.80
2019,05,29,01,00,13.80
2019,05,29,01,01,13.70
2019,05,29,01,02,13.70
2019,05,29,01,03,13.70
2019,05,29,01,04,13.70
2019,05,29,01,05,13.70
2019,05,29,01,06,13.70
2019,05,29,01,07,13.70
2019,05,29,01,08,13.70
2019,05,29,01,09,13.70
2019,05,29,01,10,13.70
2019,05,29,01,11,13.70
2019,05,29,01,12,13.70
2019,05,29,01,13,13.70
2019,05,29,01,14,13.70
2019,05,29,01,15,13.70
2019,05,29,01,16,13.70
2019,05,29,01,17,13.60
2019,05,29,01,18,13.60
2019,05,29,01,19,13.60
2019,05,29,01,20,13.60
2019,05,29,01,21,13.60
2019,05,29,01,22,13.60
2019,05,29,01,23,13.60
2019,05,29,01,24,13.50
2019,05,29,01,25,13.50
2019,05,29,01,26,13.40
2019,05,29,01,27,13.40
2019,05,29,01,28,13.40
2019,05,29,01,29,13.40
2019,05,29,01,30,13.30
2019,05,29,01,31,13.30
2019,05,29,01,32,13.30
2019,05,29,01,33,13.30
2019,05,29,01,34,13.20
2019,05,29,01,35,13.20
2019,05,29,01,36,13.20
2019,05,29,01,37,13.20
2019,05,29,01,38,13.20
2019,05,29,01,39,13.10
2019,05,29,01,40,13.10
2019,05,29,01,41,13.10
2019,05,29,01,42,13.10
2019,05,29,01,43,13.10
2019,05,29,01,44,13.10
2019,05,29,01,45,13.10
2019,05,29,01,46,13.10
2019,05,29,01,47,13.10
2019,05,29,01,48,13.10
2019,05,29,01,49,13.10
2019,05,29,01,50,13.10
2019,05,29,01,51,13.10
2019,05,29,01,52,13.10
2019,05,29,01,53,13.00
2019,05,29,01,54,13.00
2019,05,29,01,55,13.00
2019,05,29,01,56,13.00
2019,05,29,01,57,12.90
2019,05,29,01,58,12.90
2019,05,29,01,59,12.90
2019,05,29,02,00,12.90
2019,05,29,02,01,12.90
2019,05,29,02,02,12.90
2019,05,29,02,03,12.90
2019,05,29,02,04,12.80
2019,05,29,02,05,12.80
2019,05,29,02,06,12.80
2019,05,29,02,07,12.90
2019,05,29,02,08,12.80
2019,05,29,02,09,12.80
2019,05,29,02,10,12.80
2019,05,29,02,11,12.80
2019,05,29,02,12,12.80
2019,05,29,02,13,12.80
2019,05,29,02,14,12.70
2019,05,29,02,15,12.70
2019,05,29,02,16,12.70
2019,05,29,02,17,12.70
2019,05,29,02,18,12.70
2019,05,29,02,19,12.70
2019,05,29,02,20,12.70
2019,05,29,02,21,12.70
2019,05,29,02,22,12.70
2019,05,29,02,23,12.70
2019,05,29,02,24,12.60
2019,05,29,02,25,12.60
2019,05,29,02,26,12.60
2019,05,29,02,27,12.70
2019,05,29,02,28,12.70
2019,05,29,02,29,12.70
2019,05,29,02,30,12.70
2019,05,29,02,31,12.70
2019,05,29,02,32,12.70
2019,05,29,02,33,12.70
2019,05,29,02,34,12.70
2019,05,29,02,35,12.70
2019,05,29,02,36,12.70
2019,05,29,02,37,12.70
2019,05,29,02,38,12.70
2019,05,29,02,39,12.70
2019,05,29,02,40,12.70
2019,05,29,02,41,12.70
2019,05,29,02,42,12.70
2019,05,29,02,43,12.70
2019,05,29,02,44,12.70
2019,05,29,02,45,12.70
2019,05,29,02,46,12.70
2019,05,29,02,47,12.70
2019,05,29,02,48,12.70
2019,05,29,02,49,12.70
2019,05,29,02,50,12.60
2019,05,29,02,51,12.60
2019,05,29,02,52,12.50
2019,05,29,02,53,12.50
2019,05,29,02,54,12.50
2019,05,29,02,55,12.50
2019,05,29,02,56,12.50
2019,05,29,02,57,12.50
2019,05,29,02,58,12.50
2019,05,29,02,59,12.60
2019,05,29,03,00,12.60
2019,05,29,03,01,12.60
2019,05,29,03,02,12.60
2019,05,29,03,03,12.60
2019,05,29,03,04,12.60
2019,05,29,03,05,12.60
2019,05,29,03,06,12.70
2019,05,29,03,07,12.70
2019,05,29,03,08,12.70
2019,05,29,03,09,12.70
2019,05,29,03,10,12.70
2019,05,29,03,11,12.70
2019,05,29,03,12,12.70
2019,05,29,03,13,12.70
2019,05,29,03,14,12.70
2019,05,29,03,15,12.70
2019,05,29,03,16,12.70
2019,05,29,03,17,12.60
2019,05,29,03,18,12.60
2019,05,29,03,19,12.60
2019,05,29,03,20,12.60
2019,05,29,03,21,12.60
2019,05,29,03,22,12.50
2019,05,29,03,23,12.50
2019,05,29,03,24,12.50
2019,05,29,03,25,12.50
2019,05,29,03,26,12.50
2019,05,29,03,27,12.40
2019,05,29,03,28,12.40
2019,05,29,03,29,12.40
2019,05,29,03,30,12.40
2019,05,29,03,31,12.40
2019,05,29,03,32,12.30
2019,05,29,03,33,12.30
2019,05,29,03,34,12.30
2019,05,29,03,35,12.30
2019,05,29,03,36,12.30
2019,05,29,03,37,12.30
2019,05,29,03,38,12.30
2019,05,29,03,39,12.30
2019,05,29,03,40,12.20
2019,05,29,03,41,12.20
2019,05,29,03,42,12.20
2019,05,29,03,43,12.20
2019,05,29,03,44,12.20
2019,05,29,03,45,12.20
2019,05,29,03,46,12.20
2019,05,29,03,47,12.20
2019,05,29,03,48,12.20
2019,05,29,03,49,12.20
2019,05,29,03,50,12.20
2019,05,29,03,51,12.20
2019,05,29,03,52,12.20
2019,05,29,03,53,12.20
2019,05,29,03,54,12.20
2019,05,29,03,55,12.20
2019,05,29,03,56,12.10
2019,05,29,03,57,12.10
2019,05,29,03,58,12.10
2019,05,29,03,59,12.10
2019,05,29,04,00,12.10
2019,05,29,04,01,12.10
2019,05,29,04,02,12.10
2019,05,29,04,03,12.10
2019,05,29,04,04,12.10
2019,05,29,04,05,12.10
2019,05,29,04,06,12.10
2019,05,29,04,07,12.10
2019,05,29,04,08,12.10
2019,05,29,04,09,12.10
2019,05,29,04,10,12.10
2019,05,29,04,11,12.10
2019,05,29,04,12,12.10
2019,05,29,04,13,12.10
2019,05,29,04,14,12.10
2019,05,29,04,15,12.10
2019,05,29,04,16,12.10
2019,05,29,04,17,12.10
2019,05,29,04,18,12.00
2019,05,29,04,19,12.00
2019,05,29,04,20,12.00
2019,05,29,04,21,11.90
2019,05,29,04,22,11.90
2019,05,29,04,23,11.90
2019,05,29,04,24,11.80
2019,05,29,04,25,11.80
2019,05,29,04,26,11.70
2019,05,29,04,27,11.70
2019,05,29,04,28,11.60
2019,05,29,04,29,11.60
2019,05,29,04,30,11.50
2019,05,29,04,31,11.50
2019,05,29,04,32,11.40
2019,05,29,04,33,11.40
2019,05,29,04,34,11.40
2019,05,29,04,35,11.30
2019,05,29,04,36,11.30
2019,05,29,04,37,11.30
2019,05,29,04,38,11.30
2019,05,29,04,39,11.30
2019,05,29,04,40,11.30
2019,05,29,04,41,11.30
2019,05,29,04,42,11.30
2019,05,29,04,43,11.30
2019,05,29,04,44,11.30
2019,05,29,04,45,11.30
2019,05,29,04,46,11.30
2019,05,29,04,47,11.30
2019,05,29,04,48,11.30
2019,05,29,04,49,11.30
2019,05,29,04,50,11.30
2019,05,29,04,51,11.30
2019,05,29,04,52,11.30
2019,05,29,04,53,11.30
2019,05,29,04,54,11.30
2019,05,29,04,55,11.30
2019,05,29,04,56,11.30
2019,05,29,04,57,11.20
2019,05,29,04,58,11.20
2019,05,29,04,59,11.20
2019,05,29,05,00,11.10
2019,05,29,05,01,11.00
2019,05,29,05,02,11.00
2019,05,29,05,03,10.90
2019,05,29,05,04,10.90
2019,05,29,05,05,10.80
2019,05,29,05,06,10.80
2019,05,29,05,07,10.80
2019,05,29,05,08,10.80
2019,05,29,05,09,10.70
2019,05,29,05,10,10.70
2019,05,29,05,11,10.70
2019,05,29,05,12,10.60
2019,05,29,05,13,10.60
2019,05,29,05,14,10.50
2019,05,29,05,15,10.50
2019,05,29,05,16,10.40
2019,05,29,05,17,10.40
2019,05,29,05,18,10.40
2019,05,29,05,19,10.40
2019,05,29,05,20,10.40
2019,05,29,05,21,10.40
2019,05,29,05,22,10.40
2019,05,29,05,23,10.40
2019,05,29,05,24,10.40
2019,05,29,05,25,10.50
2019,05,29,05,26,10.50
2019,05,29,05,27,10.60
2019,05,29,05,28,10.60
2019,05,29,05,29,10.60
2019,05,29,05,30,10.60
2019,05,29,05,31,10.60
2019,05,29,05,32,10.60
2019,05,29,05,33,10.60
2019,05,29,05,34,10.70
2019,05,29,05,35,10.70
2019,05,29,05,36,10.80
2019,05,29,05,37,10.80
2019,05,29,05,38,10.90
2019,05,29,05,39,10.90
2019,05,29,05,40,10.90
2019,05,29,05,41,11.00
2019,05,29,05,42,11.00
2019,05,29,05,43,11.00
2019,05,29,05,44,11.10
2019,05,29,05,45,11.10
2019,05,29,05,46,11.10
2019,05,29,05,47,11.20
2019,05,29,05,48,11.20
2019,05,29,05,49,11.20
2019,05,29,05,50,11.20
2019,05,29,05,51,11.20
2019,05,29,05,52,11.20
2019,05,29,05,53,11.20
2019,05,29,05,54,11.20
2019,05,29,05,55,11.30
2019,05,29,05,56,11.30
2019,05,29,05,57,11.30
2019,05,29,05,58,11.30
2019,05,29,05,59,11.30
2019,05,29,06,00,11.30
2019,05,29,06,01,11.30
2019,05,29,06,02,11.30
2019,05,29,06,03,11.30
2019,05,29,06,04,11.20
2019,05,29,06,05,11.20
2019,05,29,06,06,11.30
2019,05,29,06,07,11.30
2019,05,29,06,08,11.30
2019,05,29,06,09,11.30
2019,05,29,06,10,11.30
2019,05,29,06,11,11.30
2019,05,29,06,12,11.40
2019,05,29,06,13,11.40
2019,05,29,06,14,11.50
2019,05,29,06,15,11.50
2019,05,29,06,16,11.60
2019,05,29,06,17,11.60
2019,05,29,06,18,11.70
2019,05,29,06,19,11.70
2019,05,29,06,20,11.80
2019,05,29,06,21,11.80
2019,05,29,06,22,11.80
2019,05,29,06,23,11.90
2019,05,29,06,24,11.90
2019,05,29,06,25,12.00
2019,05,29,06,26,12.00
2019,05,29,06,27,12.10
2019,05,29,06,28,12.10
2019,05,29,06,29,12.20
2019,05,29,06,30,12.20
2019,05,29,06,31,12.20
2019,05,29,06,32,12.30
2019,05,29,06,33,12.30
2019,05,29,06,34,12.30
2019,05,29,06,35,12.40
2019,05,29,06,36,12.40
2019,05,29,06,37,12.50
2019,05,29,06,38,12.60
2019,05,29,06,39,12.60
2019,05,29,06,40,12.70
2019,05,29,06,41,12.70
2019,05,29,06,42,12.70
2019,05,29,06,43,12.70
2019,05,29,06,44,12.80
2019,05,29,06,45,12.80
2019,05,29,06,46,12.90
2019,05,29,06,47,12.90
2019,05,29,06,48,13.00
2019,05,29,06,49,13.00
2019,05,29,06,50,13.10
2019,05,29,06,51,13.10
2019,05,29,06,52,13.10
2019,05,29,06,53,13.10
2019,05,29,06,54,13.10
2019,05,29,06,55,13.10
2019,05,29,06,56,13.20
2019,05,29,06,57,13.20
2019,05,29,06,58,13.30
2019,05,29,06,59,13.30
2019,05,29,07,00,13.30
2019,05,29,07,01,13.40
2019,05,29,07,02,13.40
2019,05,29,07,03,13.40
2019,05,29,07,04,13.50
2019,05,29,07,05,13.60
2019,05,29,07,06,13.60
2019,05,29,07,07,13.70
2019,05,29,07,08,13.70
2019,05,29,07,09,13.80
2019,05,29,07,10,13.80
2019,05,29,07,11,13.90
2019,05,29,07,12,13.90
2019,05,29,07,13,14.00
2019,05,29,07,14,14.10
2019,05,29,07,15,14.10
2019,05,29,07,16,14.20
2019,05,29,07,17,14.30
2019,05,29,07,18,14.30
2019,05,29,07,19,14.40
2019,05,29,07,20,14.40
2019,05,29,07,21,14.50
2019,05,29,07,22,14.60
2019,05,29,07,23,14.60
2019,05,29,07,24,14.60
2019,05,29,07,25,14.60
2019,05,29,07,26,14.70
2019,05,29,07,27,14.70
2019,05,29,07,28,14.80
2019,05,29,07,29,14.80
2019,05,29,07,30,14.90
2019,05,29,07,31,14.90
2019,05,29,07,32,15.00
2019,05,29,07,33,15.00
2019,05,29,07,34,15.10
2019,05,29,07,35,15.10
2019,05,29,07,36,15.20
2019,05,29,07,37,15.20
2019,05,29,07,38,15.30
2019,05,29,07,39,15.30
2019,05,29,07,40,15.40
2019,05,29,07,41,15.40
2019,05,29,07,42,15.50
2019,05,29,07,43,15.60
2019,05,29,07,44,15.60
2019,05,29,07,45,15.60
2019,05,29,07,46,15.60
2019,05,29,07,47,15.50
2019,05,29,07,48,15.50
2019,05,29,07,49,15.50
2019,05,29,07,50,15.50
2019,05,29,07,51,15.50
2019,05,29,07,52,15.50
2019,05,29,07,53,15.60
2019,05,29,07,54,15.70
2019,05,29,07,55,15.80
2019,05,29,07,56,15.80
2019,05,29,07,57,15.80
2019,05,29,07,58,15.90
2019,05,29,07,59,15.90
2019,05,29,08,00,15.90
2019,05,29,08,01,15.90
2019,05,29,08,02,15.90
2019,05,29,08,03,15.90
2019,05,29,08,04,15.80
2019,05,29,08,05,15.80
2019,05,29,08,06,15.80
2019,05,29,08,07,15.90
2019,05,29,08,08,15.90
2019,05,29,08,09,15.90
2019,05,29,08,10,15.90
2019,05,29,08,11,16.00
2019,05,29,08,12,16.00
2019,05,29,08,13,16.00
2019,05,29,08,14,15.90
2019,05,29,08,15,15.90
2019,05,29,08,16,15.90
2019,05,29,08,17,16.00
2019,05,29,08,18,16.00
2019,05,29,08,19,15.90
2019,05,29,08,20,15.90
2019,05,29,08,21,15.80
2019,05,29,08,22,15.80
2019,05,29,08,23,15.80
2019,05,29,08,24,15.80
2019,05,29,08,25,15.80
2019,05,29,08,26,15.80
2019,05,29,08,27,15.80
2019,05,29,08,28,15.80
2019,05,29,08,29,15.90
2019,05,29,08,30,15.90
2019,05,29,08,31,15.90
2019,05,29,08,32,15.90
2019,05,29,08,33,15.90
2019,05,29,08,34,15.90
2019,05,29,08,35,15.90
2019,05,29,08,36,15.90
2019,05,29,08,37,15.90
2019,05,29,08,38,15.90
2019,05,29,08,39,15.90
2019,05,29,08,40,15.90
2019,05,29,08,41,15.90
2019,05,29,08,42,15.90
2019,05,29,08,43,15.80
2019,05,29,08,44,15.80
2019,05,29,08,45,15.80
2019,05,29,08,46,15.80
2019,05,29,08,47,15.90
2019,05,29,08,48,15.90
2019,05,29,08,49,15.90
2019,05,29,08,50,16.00
2019,05,29,08,51,16.00
2019,05,29,08,52,16.10
2019,05,29,08,53,16.10
2019,05,29,08,54,16.10
2019,05,29,08,55,16.20
2019,05,29,08,56,16.20
2019,05,29,08,57,16.20
2019,05,29,08,58,16.20
2019,05,29,08,59,16.20
2019,05,29,09,00,16.20
2019,05,29,09,01,16.20
2019,05,29,09,02,16.20
2019,05,29,09,03,16.20
2019,05,29,09,04,16.20
2019,05,29,09,05,16.20
2019,05,29,09,06,16.20
2019,05,29,09,07,16.20
2019,05,29,09,08,16.30
2019,05,29,09,09,16.30
2019,05,29,09,10,16.30
2019,05,29,09,11,16.30
2019,05,29,09,12,16.30
2019,05,29,09,13,16.30
2019,05,29,09,14,16.30
2019,05,29,09,15,16.30
2019,05,29,09,16,16.30
2019,05,29,09,17,16.40
2019,05,29,09,18,16.40
2019,05,29,09,19,16.40
2019,05,29,09,20,16.40
2019,05,29,09,21,16.50
2019,05,29,09,22,16.50
2019,05,29,09,23,16.50
2019,05,29,09,24,16.60
2019,05,29,09,25,16.60
2019,05,29,09,26,16.60
2019,05,29,09,27,16.60
2019,05,29,09,28,16.60
2019,05,29,09,29,16.60
2019,05,29,09,30,16.60
2019,05,29,09,31,16.60
2019,05,29,09,32,16.60
2019,05,29,09,33,16.50
2019,05,29,09,34,16.40
2019,05,29,09,35,16.40
2019,05,29,09,36,16.40
2019,05,29,09,37,16.40
2019,05,29,09,38,16.30
2019,05,29,09,39,16.30
2019,05,29,09,40,16.30
2019,05,29,09,41,16.40
2019,05,29,09,42,16.40
2019,05,29,09,43,16.50
2019,05,29,09,44,16.50
2019,05,29,09,45,16.60
2019,05,29,09,46,16.60
2019,05,29,09,47,16.60
2019,05,29,09,48,16.60
2019,05,29,09,49,16.60
2019,05,29,09,50,16.70
2019,05,29,09,51,16.70
2019,05,29,09,52,16.70
2019,05,29,09,53,16.80
2019,05,29,09,54,16.80
2019,05,29,09,55,16.80
2019,05,29,09,56,16.80
2019,05,29,09,57,16.90
2019,05,29,09,58,16.90
2019,05,29,09,59,16.90
2019,05,29,10,00,17.00
2019,05,29,10,01,17.00
2019,05,29,10,02,17.00
2019,05,29,10,03,17.10
2019,05,29,10,04,17.10
2019,05,29,10,05,17.10
2019,05,29,10,06,17.20
2019,05,29,10,07,17.20
2019,05,29,10,08,17.20
2019,05,29,10,09,17.20
2019,05,29,10,10,17.20
2019,05,29,10,11,17.20
2019,05,29,10,12,17.20
2019,05,29,10,13,17.20
2019,05,29,10,14,17.20
2019,05,29,10,15,17.20
2019,05,29,10,16,17.20
2019,05,29,10,17,17.30
2019,05,29,10,18,17.40
2019,05,29,10,19,17.40
2019,05,29,10,20,17.50
2019,05,29,10,21,17.50
2019,05,29,10,22,17.50
2019,05,29,10,23,17.50
2019,05,29,10,24,17.50
2019,05,29,10,25,17.60
2019,05,29,10,26,17.50
2019,05,29,10,27,17.50
2019,05,29,10,28,17.50
2019,05,29,10,29,17.50
2019,05,29,10,30,17.50
2019,05,29,10,31,17.60
2019,05,29,10,32,17.60
2019,05,29,10,33,17.60
2019,05,29,10,34,17.60
2019,05,29,10,35,17.50
2019,05,29,10,36,17.50
2019,05,29,10,37,17.50
2019,05,29,10,38,17.50
2019,05,29,10,39,17.50
2019,05,29,10,40,17.50
2019,05,29,10,41,17.50
2019,05,29,10,42,17.50
2019,05,29,10,43,17.50
2019,05,29,10,44,17.50
2019,05,29,10,45,17.50
2019,05,29,10,46,17.50
2019,05,29,10,47,17.50
2019,05,29,10,48,17.50
2019,05,29,10,49,17.50
2019,05,29,10,50,17.60
2019,05,29,10,51,17.50
2019,05,29,10,52,17.50
2019,05,29,10,53,17.50
2019,05,29,10,54,17.50
2019,05,29,10,55,17.50
2019,05,29,10,56,17.50
2019,05,29,10,57,17.50
2019,05,29,10,58,17.50
2019,05,29,10,59,17.60
2019,05,29,11,00,17.60
2019,05,29,11,01,17.70
2019,05,29,11,02,17.70
2019,05,29,11,03,17.70
2019,05,29,11,04,17.70
2019,05,29,11,05,17.70
2019,05,29,11,06,17.70
2019,05,29,11,07,17.70
2019,05,29,11,08,17.70
2019,05,29,11,09,17.70
2019,05,29,11,10,17.70
2019,05,29,11,11,17.60
2019,05,29,11,12,17.60
2019,05,29,11,13,17.60
2019,05,29,11,14,17.70
2019,05,29,11,15,17.80
2019,05,29,11,16,17.80
2019,05,29,11,17,17.90
2019,05,29,11,18,17.90
2019,05,29,11,19,17.90
2019,05,29,11,20,17.90
2019,05,29,11,21,17.90
2019,05,29,11,22,17.90
2019,05,29,11,23,17.90
2019,05,29,11,24,17.90
2019,05,29,11,25,18.00
2019,05,29,11,26,18.10
2019,05,29,11,27,18.20
2019,05,29,11,28,18.40
2019,05,29,11,29,18.50
2019,05,29,11,30,18.50
2019,05,29,11,31,18.50
2019,05,29,11,32,18.60
2019,05,29,11,33,18.60
2019,05,29,11,34,18.60
2019,05,29,11,35,18.60
2019,05,29,11,36,18.50
2019,05,29,11,37,18.50
2019,05,29,11,38,18.50
2019,05,29,11,39,18.60
2019,05,29,11,40,18.50
2019,05,29,11,41,18.50
2019,05,29,11,42,18.40
2019,05,29,11,43,18.40
2019,05,29,11,44,18.40
2019,05,29,11,45,18.40
2019,05,29,11,46,18.40
2019,05,29,11,47,18.40
2019,05,29,11,48,18.40
2019,05,29,11,49,18.30
2019,05,29,11,50,18.30
2019,05,29,11,51,18.20
2019,05,29,11,52,18.20
2019,05,29,11,53,18.30
2019,05,29,11,54,18.30
2019,05,29,11,55,18.30
2019,05,29,11,56,18.30
2019,05,29,11,57,18.30
2019,05,29,11,58,18.30
2019,05,29,11,59,18.30
2019,05,29,12,00,18.20
2019,05,29,12,01,18.20
2019,05,29,12,02,18.20
2019,05,29,12,03,18.20
2019,05,29,12,04,18.20
2019,05,29,12,05,18.20
2019,05,29,12,06,18.20
2019,05,29,12,07,18.30
2019,05,29,12,08,18.30
2019,05,29,12,09,18.40
2019,05,29,12,10,18.50
2019,05,29,12,11,18.60
2019,05,29,12,12,18.60
2019,05,29,12,13,18.70
2019,05,29,12,14,18.70
2019,05,29,12,15,18.60
2019,05,29,12,16,18.60
2019,05,29,12,17,18.60
2019,05,29,12,18,18.60
2019,05,29,12,19,18.60
2019,05,29,12,20,18.60
2019,05,29,12,21,18.60
2019,05,29,12,22,18.60
2019,05,29,12,23,18.60
2019,05,29,12,24,18.70
2019,05,29,12,25,18.70
2019,05,29,12,26,18.80
2019,05,29,12,27,18.80
2019,05,29,12,28,18.80
2019,05,29,12,29,18.80
2019,05,29,12,30,18.70
2019,05,29,12,31,18.70
2019,05,29,12,32,18.70
2019,05,29,12,33,18.70
2019,05,29,12,34,18.70
2019,05,29,12,35,18.60
2019,05,29,12,36,18.60
2019,05,29,12,37,18.60
2019,05,29,12,38,18.70
2019,05,29,12,39,18.70
2019,05,29,12,40,18.80
2019,05,29,12,41,18.90
2019,05,29,12,42,18.90
2019,05,29,12,43,18.90
2019,05,29,12,44,18.90
2019,05,29,12,45,18.90
2019,05,29,12,46,18.90
2019,05,29,12,47,18.90
2019,05,29,12,48,19.00
2019,05,29,12,49,19.00
2019,05,29,12,50,19.00
2019,05,29,12,51,18.90
2019,05,29,12,52,18.90
2019,05,29,12,53,19.00
2019,05,29,12,54,19.00
2019,05,29,12,55,19.00
2019,05,29,12,56,19.10
2019,05,29,12,57,19.10
2019,05,29,12,58,19.20
2019,05,29,12,59,19.20
2019,05,29,13,00,19.30
2019,05,29,13,01,19.30
2019,05,29,13,02,19.30
2019,05,29,13,03,19.40
2019,05,29,13,04,19.50
2019,05,29,13,05,19.60
2019,05,29,13,06,19.70
2019,05,29,13,07,19.70
2019,05,29,13,08,19.70
2019,05,29,13,09,19.70
2019,05,29,13,10,19.70
2019,05,29,13,11,19.60
2019,05,29,13,12,19.60
2019,05,29,13,13,19.60
2019,05,29,13,14,19.60
2019,05,29,13,15,19.60
2019,05,29,13,16,19.60
2019,05,29,13,17,19.60
2019,05,29,13,18,19.60
2019,05,29,13,19,19.60
2019,05,29,13,20,19.60
2019,05,29,13,21,19.60
2019,05,29,13,22,19.60
2019,05,29,13,23,19.60
2019,05,29,13,24,19.60
2019,05,29,13,25,19.50
2019,05,29,13,26,19.50
2019,05,29,13,27,19.50
2019,05,29,13,28,19.40
2019,05,29,13,29,19.40
2019,05,29,13,30,19.40
2019,05,29,13,31,19.30
2019,05,29,13,32,19.30
2019,05,29,13,33,19.40
2019,05,29,13,34,19.50
2019,05,29,13,35,19.50
2019,05,29,13,36,19.50
2019,05,29,13,37,19.60
2019,05,29,13,38,19.60
2019,05,29,13,39,19.70
2019,05,29,13,40,19.70
2019,05,29,13,41,19.80
2019,05,29,13,42,19.90
2019,05,29,13,43,19.80
2019,05,29,13,44,19.80
2019,05,29,13,45,19.80
2019,05,29,13,46,19.70
2019,05,29,13,47,19.70
2019,05,29,13,48,19.70
2019,05,29,13,49,19.70
2019,05,29,13,50,19.70
2019,05,29,13,51,19.60
2019,05,29,13,52,19.70
2019,05,29,13,53,19.70
2019,05,29,13,54,19.80
2019,05,29,13,55,19.80
2019,05,29,13,56,19.90
2019,05,29,13,57,20.00
2019,05,29,13,58,20.10
2019,05,29,13,59,20.10
2019,05,29,14,00,20.10
2019,05,29,14,01,20.20
2019,05,29,14,02,20.20
2019,05,29,14,03,20.30
2019,05,29,14,04,20.30
2019,05,29,14,05,20.40
2019,05,29,14,06,20.30
2019,05,29,14,07,20.30
2019,05,29,14,08,20.40
2019,05,29,14,09,20.40
2019,05,29,14,10,20.40
2019,05,29,14,11,20.30
2019,05,29,14,12,20.20
2019,05,29,14,13,20.10
2019,05,29,14,14,20.00
2019,05,29,14,15,20.00
2019,05,29,14,16,19.90
2019,05,29,14,17,19.90
2019,05,29,14,18,19.80
2019,05,29,14,19,19.80
2019,05,29,14,20,19.90
2019,05,29,14,21,19.90
2019,05,29,14,22,19.90
2019,05,29,14,23,19.90
2019,05,29,14,24,19.90
2019,05,29,14,25,19.90
2019,05,29,14,26,20.00
2019,05,29,14,27,20.00
2019,05,29,14,28,20.10
2019,05,29,14,29,20.10
2019,05,29,14,30,20.10
2019,05,29,14,31,20.10
2019,05,29,14,32,20.10
2019,05,29,14,33,20.20
2019,05,29,14,34,20.20
2019,05,29,14,35,20.20
2019,05,29,14,36,20.10
2019,05,29,14,37,20.10
2019,05,29,14,38,20.20
2019,05,29,14,39,20.10
2019,05,29,14,40,20.10
2019,05,29,14,41,20.20
2019,05,29,14,42,20.20
2019,05,29,14,43,20.20
2019,05,29,14,44,20.20
2019,05,29,14,45,20.20
2019,05,29,14,46,20.20
2019,05,29,14,47,20.20
2019,05,29,14,48,20.20
2019,05,29,14,49,20.30
2019,05,29,14,50,20.30
2019,05,29,14,51,20.30
2019,05,29,14,52,20.30
2019,05,29,14,53,20.20
2019,05,29,14,54,20.20
2019,05,29,14,55,20.10
2019,05,29,14,56,20.10
2019,05,29,14,57,20.10
2019,05,29,14,58,20.10
2019,05,29,14,59,20.10
2019,05,29,15,00,20.20
2019,05,29,15,01,20.20
2019,05,29,15,02,20.10
2019,05,29,15,03,20.10
2019,05,29,15,04,20.10
2019,05,29,15,05,20.20
2019,05,29,15,06,20.20
2019,05,29,15,07,20.30
2019,05,29,15,08,20.40
2019,05,29,15,09,20.40
2019,05,29,15,10,20.40
2019,05,29,15,11,20.30
2019,05,29,15,12,20.30
2019,05,29,15,13,20.30
2019,05,29,15,14,20.30
2019,05,29,15,15,20.30
2019,05,29,15,16,20.40
2019,05,29,15,17,20.50
2019,05,29,15,18,20.60
2019,05,29,15,19,20.70
2019,05,29,15,20,20.80
2019,05,29,15,21,20.90
2019,05,29,15,22,20.90
2019,05,29,15,23,21.00
2019,05,29,15,24,20.90
2019,05,29,15,25,20.90
2019,05,29,15,26,21.00
2019,05,29,15,27,21.00
2019,05,29,15,28,21.10
2019,05,29,15,29,21.20
2019,05,29,15,30,21.20
2019,05,29,15,31,21.20
2019,05,29,15,32,21.20
2019,05,29,15,33,21.30
2019,05,29,15,34,21.40
2019,05,29,15,35,21.40
2019,05,29,15,36,21.40
2019,05,29,15,37,21.40
2019,05,29,15,38,21.40
2019,05,29,15,39,21.40
2019,05,29,15,40,21.40
2019,05,29,15,41,21.50
2019,05,29,15,42,21.60
2019,05,29,15,43,21.60
2019,05,29,15,44,21.60
2019,05,29,15,45,21.60
2019,05,29,15,46,21.60
2019,05,29,15,47,21.60
2019,05,29,15,48,21.60
2019,05,29,15,49,21.60
2019,05,29,15,50,21.60
2019,05,29,15,51,21.60
2019,05,29,15,52,21.70
2019,05,29,15,53,21.70
2019,05,29,15,54,21.70
2019,05,29,15,55,21.80
2019,05,29,15,56,21.90
2019,05,29,15,57,22.00
2019,05,29,15,58,22.00
2019,05,29,15,59,22.00
2019,05,29,16,00,22.00
2019,05,29,16,01,22.00
2019,05,29,16,02,22.10
2019,05,29,16,03,22.20
2019,05,29,16,04,22.30
2019,05,29,16,05,22.30
2019,05,29,16,06,22.40
2019,05,29,16,07,22.40
2019,05,29,16,08,22.40
2019,05,29,16,09,22.40
2019,05,29,16,10,22.30
2019,05,29,16,11,22.30
2019,05,29,16,12,22.30
2019,05,29,16,13,22.30
2019,05,29,16,14,22.30
2019,05,29,16,15,22.30
2019,05,29,16,16,22.40
2019,05,29,16,17,22.40
2019,05,29,16,18,22.50
2019,05,29,16,19,22.50
2019,05,29,16,20,22.50
2019,05,29,16,21,22.50
2019,05,29,16,22,22.50
2019,05,29,16,23,22.50
2019,05,29,16,24,22.50
2019,05,29,16,25,22.50
2019,05,29,16,26,22.50
2019,05,29,16,27,22.50
2019,05,29,16,28,22.40
2019,05,29,16,29,22.50
2019,05,29,16,30,22.50
2019,05,29,16,31,22.40
2019,05,29,16,32,22.40
2019,05,29,16,33,22.40
2019,05,29,16,34,22.30
2019,05,29,16,35,22.30
2019,05,29,16,36,22.30
2019,05,29,16,37,22.30
2019,05,29,16,38,22.30
2019,05,29,16,39,22.30
2019,05,29,16,40,22.20
2019,05,29,16,41,22.20
2019,05,29,16,42,22.20
2019,05,29,16,43,22.10
2019,05,29,16,44,22.20
2019,05,29,16,45,22.20
2019,05,29,16,46,22.20
2019,05,29,16,47,22.10
2019,05,29,16,48,22.10
2019,05,29,16,49,22.10
2019,05,29,16,50,22.10
2019,05,29,16,51,22.10
2019,05,29,16,52,22.20
2019,05,29,16,53,22.20
2019,05,29,16,54,22.20
2019,05,29,16,55,22.20
2019,05,29,16,56,22.20
2019,05,29,16,57,22.10
2019,05,29,16,58,22.00
2019,05,29,16,59,21.90
2019,05,29,17,00,21.90
2019,05,29,17,01,21.90
2019,05,29,17,02,21.90
2019,05,29,17,03,22.00
2019,05,29,17,04,22.10
2019,05,29,17,05,22.00
2019,05,29,17,06,21.90
2019,05,29,17,07,21.80
2019,05,29,17,08,21.80
2019,05,29,17,09,21.70
2019,05,29,17,10,21.70
2019,05,29,17,11,21.70
2019,05,29,17,12,21.60
2019,05,29,17,13,21.70
2019,05,29,17,14,21.70
2019,05,29,17,15,21.70
2019,05,29,17,16,21.80
2019,05,29,17,17,21.80
2019,05,29,17,18,21.80
2019,05,29,17,19,21.80